Wind_Speed
72 62 53 56 60 68 84 84 82 78 74 72 71 65 57 53 53 51 46 39 36 38 36 37 29 34 38 43 42 39 35 36 28 27 24 22 21 18 17 16 15 15 15 15 15
84 74 58 58 61 55 71 81 79 76 74 69 69 63 58 59 57 54 45 43 40 40 40 39 40 33 37 40 45 43 38 36 31 31 27 26 24 23 19 18 16 16 16 16 16
83 84 58 59 58 59 57 77 78 74 70 63 64 63 61 62 59 50 47 44 42 40 38 38 37 35 38 41 44 44 37 38 34 34 31 28 26 24 21 20 20 20 19 17 18
71 79 54 59 62 58 60 60 66 74 72 64 58 58 59 61 59 55 49 47 44 44 40 41 41 38 40 42 43 45 39 41 37 36 32 28 29 24 22 24 23 22 19 19 18
75 89 72 66 62 61 61 58 58 67 65 62 60 58 58 62 61 54 53 48 47 43 40 39 39 41 40 42 45 42 42 43 40 39 35 34 31 29 28 25 24 21 21 19 19
73 77 63 56 62 62 57 53 53 58 56 51 57 57 53 56 56 53 52 50 47 43 41 41 42 43 37 40 43 45 47 45 44 42 40 35 33 31 30 28 26 23 22 20 20
72 77 82 45 54 62 53 52 51 49 50 49 50 50 54 51 58 58 54 50 46 45 43 45 43 43 38 39 41 49 52 47 47 45 42 38 38 33 33 30 27 26 24 22 21
60 76 85 51 52 60 55 51 44 45 49 54 50 50 53 53 53 54 55 50 45 44 45 45 45 46 39 41 38 41 51 52 50 48 45 44 37 37 36 34 29 27 25 25 23
50 64 85 79 55 58 57 43 49 49 50 58 57 53 50 50 50 50 52 47 43 45 45 46 45 50 44 42 44 38 41 45 51 52 49 48 41 42 39 36 32 30 29 29 27
49 62 78 61 53 59 57 55 49 55 59 56 63 62 51 48 46 44 46 49 46 45 46 50 52 55 57 58 46 41 41 42 50 54 51 50 43 44 41 38 33 32 31 30 28
49 54 76 88 55 58 60 50 51 50 59 65 53 53 54 54 52 44 46 43 44 46 48 50 55 57 53 43 48 43 41 38 48 55 52 50 45 44 42 40 38 34 32 32 30
49 51 74 65 60 68 66 52 58 56 53 57 58 56 57 61 57 49 47 47 45 44 44 46 50 48 51 45 48 56 49 42 52 61 56 52 50 46 45 43 38 35 36 34 35
47 48 65 65 53 69 66 80 76 59 47 56 60 59 62 61 59 55 52 45 45 44 39 41 44 51 53 55 49 51 50 40 45 63 62 54 54 52 51 48 45 43 41 40 36
47 47 53 55 64 69 64 69 72 62 54 60 67 67 65 63 62 60 59 57 54 46 49 51 46 51 54 54 53 55 54 46 55 66 63 57 57 56 55 51 48 43 42 39 37
55 56 58 71 67 67 62 62 67 63 57 52 64 63 64 66 61 59 62 62 58 54 55 53 47 50 54 49 49 55 57 47 59 65 60 59 60 58 57 55 51 46 43 42 40
61 68 53 66 64 66 65 66 68 66 58 58 61 65 64 64 64 61 60 64 61 61 60 55 52 50 49 51 51 47 60 48 54 60 67 63 65 63 61 56 52 47 45 44 42
61 64 62 65 63 65 61 69 69 70 57 52 57 60 58 60 60 57 59 58 59 58 60 54 52 47 52 53 52 54 59 59 57 63 68 66 70 64 61 59 55 51 48 47 45
61 74 64 75 66 65 69 74 71 72 68 60 54 54 56 58 58 54 56 57 57 58 57 55 51 39 46 54 54 56 57 57 56 54 57 69 71 66 62 61 59 56 53 51 49
67 63 67 70 61 70 74 66 72 68 74 65 63 59 57 56 55 54 58 57 54 56 57 53 52 48 50 57 58 62 65 62 63 61 63 73 69 68 65 63 61 58 54 52 48
66 59 63 66 66 66 65 69 66 64 66 64 56 57 57 58 53 53 54 54 53 51 53 55 55 53 55 62 59 63 54 61 62 63 65 70 74 70 67 64 57 55 52 52 49
58 59 64 56 61 72 70 65 62 62 59 54 59 54 49 49 48 43 40 46 47 46 48 55 57 53 59 65 65 60 64 61 63 67 67 70 70 66 64 64 58 54 49 50 49
65 62 73 68 66 69 62 58 54 54 56 56 54 47 42 41 38 34 36 36 39 44 47 51 54 54 57 67 63 64 63 59 62 63 69 70 71 70 68 61 58 57 50 51 49
67 74 75 60 57 74 70 60 55 53 48 43 49 48 42 41 40 32 32 32 37 43 45 47 50 54 56 64 63 62 59 57 57 64 69 71 71 66 62 60 62 55 54 48 50
66 73 71 64 56 69 62 65 56 50 46 43 51 48 42 34 31 31 32 35 35 41 40 40 46 50 52 58 60 55 55 51 54 65 67 66 68 64 60 54 51 47 51 41 48
63 68 75 49 56 66 65 62 58 49 43 39 49 44 40 38 34 30 30 36 39 40 43 43 45 46 47 49 52 53 50 55 60 60 69 65 67 62 60 58 45 41 43 42 49
59 66 68 66 61 66 60 64 58 51 48 42 51 45 42 45 36 32 30 36 39 43 45 45 40 42 44 44 49 52 52 51 59 65 70 68 65 56 50 43 45 43 44 43 42
57 63 63 60 73 59 63 60 55 52 49 44 44 44 45 42 35 32 29 28 38 42 41 40 41 41 43 46 49 52 52 53 50 53 60 70 64 53 40 42 44 43 43 43 45
Wind_Direction
213 215 211 218 229 234 233 229 228 226 223 224 227 227 227 220 223 221 219 220 215 218 219 210 227 234 223 218 217 219 216 221 210 197 204 197 200 189 180 171 171 162 147 148 146
214 210 209 210 222 225 233 232 232 228 226 226 225 227 226 224 223 223 218 218 216 217 218 217 213 216 228 223 217 219 217 219 209 201 198 196 199 187 179 176 174 172 156 160 155
217 207 206 212 213 219 226 232 231 230 230 229 228 227 226 226 225 225 222 222 223 218 217 215 214 216 231 223 219 218 217 221 210 207 200 194 202 194 191 180 186 177 167 172 164
217 211 199 206 208 216 222 228 231 231 231 231 230 230 226 227 226 225 224 222 223 223 217 216 215 215 230 221 223 220 214 220 213 208 201 195 206 195 191 193 191 179 179 178 173
221 213 213 200 204 213 218 223 227 231 230 232 230 232 232 231 228 223 227 224 225 224 218 218 218 224 224 235 218 227 213 220 214 210 205 198 204 194 191 195 192 187 181 190 177
217 217 196 189 198 207 211 216 221 229 230 227 233 231 233 233 228 226 225 227 226 226 219 223 220 228 223 235 225 223 217 215 219 211 210 201 203 202 199 198 190 192 187 196 193
218 219 200 199 199 202 208 210 217 219 220 224 228 228 230 222 225 226 223 223 224 227 221 216 219 228 222 228 228 221 226 218 218 215 212 206 201 203 200 201 196 195 194 198 202
218 221 214 193 194 198 201 199 204 211 217 223 218 218 223 218 221 225 225 224 223 225 223 217 220 219 228 227 226 225 229 234 219 216 212 213 201 205 204 203 202 200 200 201 203
214 219 216 203 198 195 193 178 190 212 215 207 208 208 206 219 221 221 223 220 217 223 226 223 227 219 227 219 218 220 225 231 226 217 212 216 202 205 207 206 203 206 206 207 206
209 216 222 200 184 193 184 179 187 197 198 199 202 197 199 209 216 208 211 213 215 219 222 218 216 218 222 227 224 233 231 235 233 220 214 217 207 209 209 207 205 209 210 214 210
208 213 217 205 198 194 178 180 185 186 212 207 199 199 196 202 201 203 204 210 216 215 220 221 225 223 226 224 227 231 231 232 234 222 221 218 214 214 213 210 208 208 211 214 214
202 211 213 207 202 194 184 181 192 185 195 194 198 196 195 197 203 205 204 207 216 218 224 225 227 227 230 228 225 235 239 243 238 219 219 218 216 217 216 215 211 209 208 212 213
197 203 213 203 192 186 191 188 193 212 208 197 196 198 200 200 200 200 207 211 213 217 222 233 233 230 231 227 224 228 239 239 247 230 212 220 216 216 217 215 211 211 209 209 212
191 194 207 205 193 190 191 195 200 201 212 205 201 200 199 201 201 201 203 208 209 216 211 216 221 227 227 229 229 234 241 246 239 220 216 217 218 218 220 217 216 213 214 212 215
184 180 186 184 183 189 188 191 199 199 214 204 203 202 202 204 201 202 206 206 210 209 214 216 221 223 228 235 237 238 244 238 222 222 216 216 223 218 221 220 219 215 215 215 216
178 183 172 182 184 189 190 192 197 201 209 212 208 206 207 206 203 206 210 209 206 208 215 217 221 224 228 228 225 232 241 229 228 226 217 211 221 214 222 222 222 219 218 218 219
182 186 196 184 189 188 190 196 196 199 205 200 200 204 210 212 211 208 210 210 210 212 212 215 220 223 227 225 225 228 232 232 234 236 232 222 217 215 220 224 223 220 219 221 221
184 174 176 184 189 189 192 197 198 203 208 208 208 210 214 211 210 214 213 211 214 217 217 218 223 229 236 232 228 229 234 237 243 251 248 231 224 224 220 223 225 223 221 221 221
186 170 168 180 186 191 194 194 200 201 207 210 212 213 214 213 211 212 212 214 216 216 217 219 226 230 231 228 229 230 232 244 248 250 246 233 227 231 221 225 226 227 225 226 225
195 188 167 182 184 191 196 198 200 203 214 214 218 217 217 214 215 215 217 214 217 219 224 224 227 226 228 228 229 229 234 233 239 240 241 235 231 235 224 227 231 232 233 232 232
197 187 182 178 182 198 198 200 203 207 212 214 221 221 222 222 221 225 225 222 222 225 228 225 226 227 229 235 235 234 229 237 243 242 238 238 235 229 228 227 234 235 235 236 235
192 192 181 178 188 199 198 199 204 211 215 218 220 216 219 221 218 225 224 227 227 231 232 228 229 228 231 238 233 234 239 240 244 248 240 236 234 232 235 231 236 237 237 235 236
190 187 188 185 200 196 201 206 204 205 205 211 215 211 211 219 220 225 224 231 232 231 230 232 230 229 229 235 234 238 230 241 246 241 235 233 237 235 236 237 234 239 239 238 237
194 197 197 194 190 201 200 206 204 204 209 211 209 209 211 210 216 217 227 234 236 233 233 233 235 233 236 242 239 243 242 239 240 239 240 237 234 233 232 238 239 239 237 237 240
197 199 197 190 207 199 200 205 204 204 201 207 207 215 219 222 229 229 232 233 234 229 232 234 237 236 234 237 236 238 237 239 238 241 234 237 233 230 232 235 236 234 237 235 238
201 201 202 196 198 197 211 206 209 201 211 215 207 207 208 220 229 240 248 234 233 228 227 230 235 235 236 240 243 239 231 231 234 233 234 231 231 234 236 238 241 242 239 238 238
203 203 200 203 205 203 207 203 209 209 218 222 213 212 212 219 222 227 228 221 228 231 230 235 233 233 235 236 236 235 234 231 236 237 241 240 240 225 235 236 237 236 238 237 237
Height
5597 5614 5625 5631 5639 5647 5658 5670 5683 5694 5706 5716 5726 5736 5746 5757 5764 5772 5780 5787 5791 5795 5801 5802 5809 5815 5818 5822 5826 5830 5833 5836 5842 5846 5849 5853 5856 5856 5857 5858 5861 5862 5862 5864 5864
5587 5601 5611 5617 5628 5638 5647 5659 5673 5685 5696 5707 5718 5727 5736 5747 5759 5767 5775 5779 5785 5790 5795 5797 5802 5806 5813 5817 5822 5825 5830 5835 5840 5844 5847 5850 5854 5854 5856 5858 5861 5863 5862 5865 5866
5573 5588 5598 5607 5616 5626 5636 5650 5663 5675 5688 5698 5708 5718 5727 5738 5751 5763 5769 5773 5779 5785 5788 5792 5797 5800 5808 5813 5818 5823 5830 5833 5838 5842 5844 5846 5851 5852 5853 5857 5860 5861 5861 5865 5866
5560 5572 5584 5598 5607 5617 5628 5639 5653 5667 5679 5690 5699 5709 5719 5729 5742 5751 5760 5766 5771 5779 5783 5788 5793 5796 5802 5809 5813 5819 5824 5827 5833 5837 5841 5845 5848 5851 5853 5855 5859 5860 5862 5865 5865
5548 5558 5574 5588 5599 5609 5620 5632 5644 5657 5670 5680 5690 5700 5711 5721 5733 5744 5751 5760 5767 5774 5776 5782 5787 5793 5795 5805 5810 5816 5817 5822 5828 5834 5837 5840 5846 5846 5849 5854 5858 5861 5861 5865 5866
5536 5547 5562 5574 5591 5601 5613 5624 5635 5649 5661 5671 5681 5692 5704 5714 5723 5735 5742 5751 5761 5768 5772 5778 5781 5788 5790 5797 5803 5808 5809 5815 5823 5829 5833 5838 5841 5844 5848 5852 5856 5859 5861 5864 5866
5528 5537 5552 5570 5584 5596 5607 5618 5630 5643 5653 5663 5673 5685 5695 5706 5714 5723 5734 5744 5753 5760 5768 5772 5777 5783 5789 5790 5795 5799 5809 5812 5817 5823 5830 5834 5835 5842 5845 5850 5854 5856 5860 5863 5865
5520 5528 5544 5559 5579 5588 5602 5616 5627 5636 5645 5654 5663 5674 5684 5694 5704 5717 5727 5737 5746 5752 5760 5767 5773 5777 5781 5786 5790 5794 5801 5806 5812 5817 5825 5827 5835 5838 5842 5847 5850 5854 5858 5862 5865
5513 5522 5537 5553 5572 5582 5597 5611 5624 5630 5634 5640 5651 5664 5674 5687 5699 5711 5718 5727 5737 5745 5754 5760 5764 5767 5775 5779 5784 5787 5795 5800 5805 5811 5818 5822 5830 5832 5837 5843 5846 5852 5855 5859 5862
5507 5518 5532 5552 5563 5577 5593 5609 5618 5625 5623 5629 5640 5654 5668 5683 5693 5703 5711 5717 5728 5738 5745 5750 5757 5760 5765 5772 5780 5789 5790 5795 5800 5808 5812 5818 5826 5829 5834 5838 5843 5848 5852 5857 5860
5499 5511 5525 5541 5556 5572 5585 5596 5604 5608 5607 5626 5645 5653 5661 5671 5683 5694 5702 5711 5720 5726 5735 5742 5749 5754 5765 5773 5774 5778 5783 5788 5795 5802 5808 5814 5823 5826 5831 5834 5837 5844 5849 5854 5858
5494 5504 5519 5538 5552 5566 5579 5586 5596 5597 5608 5624 5632 5644 5653 5665 5675 5683 5693 5701 5711 5720 5728 5735 5746 5753 5757 5759 5765 5770 5778 5783 5788 5791 5801 5807 5815 5819 5824 5831 5834 5839 5843 5849 5851
5489 5500 5514 5533 5548 5554 5570 5581 5590 5590 5603 5617 5625 5636 5648 5656 5666 5676 5683 5693 5702 5711 5722 5730 5738 5742 5746 5752 5759 5765 5772 5777 5783 5786 5790 5798 5805 5811 5816 5823 5826 5829 5837 5840 5848
5484 5497 5510 5526 5537 5549 5561 5574 5585 5594 5601 5609 5616 5625 5635 5647 5656 5667 5673 5683 5691 5703 5711 5715 5724 5733 5739 5746 5754 5758 5771 5772 5771 5776 5779 5789 5795 5802 5809 5816 5819 5827 5832 5838 5845
5480 5491 5505 5516 5529 5544 5559 5568 5578 5591 5594 5599 5608 5617 5629 5638 5650 5658 5664 5672 5683 5694 5703 5708 5714 5726 5733 5747 5751 5756 5755 5757 5763 5767 5771 5779 5786 5797 5801 5808 5813 5820 5828 5832 5838
5475 5482 5499 5513 5525 5541 5552 5560 5571 5578 5576 5586 5598 5610 5621 5631 5639 5646 5654 5661 5672 5682 5689 5699 5708 5717 5730 5733 5742 5742 5744 5751 5756 5757 5756 5771 5776 5785 5791 5802 5810 5816 5822 5827 5831
5469 5483 5497 5508 5522 5533 5544 5550 5560 5565 5574 5587 5599 5610 5618 5627 5635 5642 5650 5660 5668 5676 5682 5692 5699 5711 5717 5724 5726 5727 5739 5742 5743 5743 5757 5761 5764 5775 5785 5792 5801 5808 5814 5819 5824
5463 5475 5488 5505 5517 5529 5536 5544 5549 5562 5571 5582 5596 5604 5611 5617 5626 5636 5641 5651 5662 5668 5678 5686 5692 5704 5712 5717 5728 5730 5732 5735 5737 5744 5753 5752 5754 5762 5777 5783 5790 5799 5804 5809 5813
5459 5470 5484 5500 5511 5521 5526 5528 5548 5560 5570 5578 5586 5595 5603 5612 5621 5627 5638 5650 5656 5665 5673 5679 5685 5693 5701 5710 5717 5719 5714 5737 5733 5736 5738 5740 5753 5756 5768 5776 5784 5792 5797 5803 5810
5453 5467 5482 5496 5506 5515 5522 5536 5544 5553 5562 5571 5580 5590 5599 5609 5617 5624 5633 5644 5650 5659 5663 5670 5672 5680 5687 5698 5701 5703 5720 5713 5716 5722 5726 5733 5744 5749 5761 5772 5781 5787 5793 5799 5803
5445 5462 5476 5487 5497 5505 5515 5528 5538 5547 5558 5569 5579 5590 5599 5607 5616 5621 5630 5637 5643 5650 5654 5658 5661 5669 5675 5684 5696 5697 5700 5704 5711 5715 5719 5725 5735 5748 5752 5764 5771 5779 5785 5791 5795
5441 5453 5469 5476 5484 5496 5510 5522 5533 5543 5554 5564 5574 5585 5594 5602 5607 5614 5622 5630 5636 5641 5647 5651 5653 5657 5668 5676 5683 5686 5692 5697 5698 5708 5712 5717 5727 5738 5744 5755 5763 5772 5775 5781 5785
5438 5448 5456 5465 5475 5489 5501 5513 5527 5538 5548 5558 5568 5579 5588 5594 5599 5607 5615 5622 5626 5631 5637 5640 5644 5648 5654 5660 5667 5675 5682 5688 5694 5699 5702 5709 5720 5730 5739 5746 5753 5761 5767 5772 5776
5432 5440 5447 5459 5473 5487 5495 5507 5521 5531 5542 5552 5561 5571 5578 5583 5592 5598 5605 5613 5618 5625 5629 5629 5634 5643 5654 5666 5668 5668 5676 5680 5684 5688 5698 5700 5708 5719 5729 5737 5744 5752 5758 5762 5766
5423 5431 5439 5451 5465 5479 5492 5503 5513 5523 5533 5543 5553 5563 5570 5578 5586 5593 5601 5606 5611 5616 5621 5625 5634 5642 5647 5650 5654 5658 5664 5668 5673 5683 5683 5697 5697 5709 5718 5726 5735 5742 5748 5750 5754
5418 5426 5436 5447 5463 5477 5485 5494 5510 5520 5529 5539 5547 5557 5565 5576 5586 5591 5598 5600 5604 5608 5615 5621 5629 5630 5634 5639 5642 5647 5653 5659 5665 5670 5676 5681 5689 5704 5712 5719 5724 5731 5736 5740 5744
5410 5422 5433 5445 5456 5465 5478 5495 5506 5516 5526 5536 5545 5554 5561 5572 5579 5582 5586 5590 5598 5602 5607 5612 5617 5620 5625 5629 5633 5633 5646 5652 5659 5664 5673 5670 5688 5696 5701 5708 5714 5721 5725 5729 5731